Starlink 5605

operational
NORAD ID: 55411 Int'l Des: 2023-014 Owner: SPXS Country: US Constellation: starlink
LEOCIRCULAR

关于 Starlink 5605

正在加载描述...

实时位置

正在加载3D地球...

即将过境

高度历史

Altitude vs Time

uPlot chart will show altitude changes over time

两行轨道根数

1 55411U 23014W 25347.52211150 -.00001501 00000-0 -11807-3 0 9993
2 55411 70.0000 281.9029 0002804 271.8391 88.2447 14.98318303159144
Epoch: Dec 13, 2025 • Age: 24 hours

当前状态

高度 593.0 km
速度 7.56 km/s
星下点 -60.34°S, 27.45°W
发射日期 Jan 31, 2023
运行时间 2.8 years
类型 internet

技术详情

分类 Payload
质量 305.00 kg
干质量 290.00 kg
总质量 305.00 kg
长度 0.20 m
直径 2.80 m
跨度 9.00 m
形状 Box + pan
制造商 SPXS
平台类型 Starlink
阶段状态 In Orbit
所有者/国家 SPXS/US

大型星座

Loading constellations...